Location: Asheville, NC
(35.6000°N, 82.5500°W)
Time: 13:49:43
(UTC-04:00)

AAUSAT CUBESAT 2 - Pass Details

Date: 13 March 2018
Orbit: 576 x 592 km, 97.5° (Epoch: 18 June)

Event Time Altitude Azimuth Distance (km) Brightness Sun altitude
Rises 21:41:56 0° 213° (SSW) 2,781 ? -26.1°
Reaches altitude 10° 21:45:22 10° 244° (WSW) 1,893 ? -26.8°
Maximum altitude 21:47:00 12° 268° (W) 1,763 ? -27.1°
Drops below altitude 10° 21:48:38 10° 292° (WNW) 1,902 ? -27.4°
Sets 21:52:07 0° 323° (NW) 2,813 ? -28.1°
